Hourly Data Report for October 21, 2016

All times are specified in Local Standard Time (LST). Add 1 hour to adjust for Daylight Saving Time where and when it is observed.

WINNIPEG A CS
MANITOBA

49°55'00.000" N
97°14'58.000" W
238.70 m
502S001
71849
XWG

Download Data

Hourly Data (October 2016)
Hourly Data Report for October 21, 2016
Temp Definition
°C
Dew Point Temp Definition
°C
Rel Hum Definition
%
Wind Dir Definition
10's deg

Wind Spd Definition
km/h
Visibility Definition
km
Stn Press Definition
kPa
Hmdx Definition


Wind Chill Definition


Weather Definition


TIME
00:00 1.4 0.0 91 17 15   99.33     LegendNANA
01:00 1.1 0.1 93 17 17   99.25     LegendNANA
02:00 -0.3 -1.0 95 15 13   99.24   -4 LegendNANA
03:00 -0.7 -1.4 95 15 13   99.15   -5 LegendNANA
04:00 -0.2 -1.0 95 15 16   99.04   -5 LegendNANA
05:00 0.0 -0.8 95 15 16   98.96   -5 LegendNANA
06:00 0.7 -0.3 93 15 21   98.83     LegendNANA
07:00 1.4 0.3 92 15 24   98.69     LegendNANA
08:00 2.4 0.9 90 15 26   98.59     LegendNANA
09:00 3.9 1.7 86 15 28   98.55     LegendNANA
10:00 4.6 3.4 92 17 33   98.40     LegendNANA
11:00 5.8 4.3 90 15 32   98.26     LegendNANA
12:00 7.0 4.7 85 16 33   98.17     LegendNANA
13:00 8.3 5.5 82 17 35   98.11     LegendNANA
14:00 8.5 6.3 86 17 33   98.00     LegendNANA
15:00 10.1 7.0 81 18 32   98.01     LegendNANA
16:00 10.2 6.3 77 18 28   98.02     LegendNANA
17:00 9.8 6.2 79 17 24   98.03     LegendNANA
18:00 8.5 5.8 84 18 18   98.06     LegendNANA
19:00 7.2 5.2 87 19 14   98.09     LegendNANA
20:00 9.1 6.1 82 23 8   98.15     LegendNANA
21:00 2.2 1.8 97 30 6   98.21     LegendNANA
22:00 3.2 3.1 100 34 4   98.26     LegendNANA
23:00 3.0 3.0 100 27 9   98.34     LegendNANA

Notes on Data Quality.

Legend

  • E = Estimated
  • M = Missing
  • NA = Not Available
  • ‡ = Partner data that is not subject to review by the National Climate Archives
Date modified: